Location: Boiro
(42.6475°N, 8.8834°W)
Time: 21:56:47
(UTC+01:00)

Vanguard 1 - Pass Details

Date: 08 December 2021
Orbit: 652 x 3830 km, 34.2° (Epoch: 19 January)

Event Time Altitude Azimuth Distance (km) Brightness Sun altitude
Rises 00:24:18 0° 234° (SW) 6,611 14.3 -66.1°
Reaches altitude 10° 00:28:14 10° 231° (SW) 5,925 13.9 -66.6°
Enters shadow 00:28:21 10° 230° (SW) 5,906 13.9 -66.6°
Maximum altitude 00:47:59 58° 158° (SSE) 4,178 - -68.5°
Exits shadow 01:09:16 11° 88° (E) 6,400 14.1 -69.7°
Drops below altitude 10° 01:09:54 10° 87° (E) 6,500 14.1 -69.7°
Sets 01:14:27 0° 84° (E) 7,256 14.5 -69.9°
